H1 CPF 2 NER 2021 7 9 9 190 01 glonass116 H2 0907001 9116 36111 2021 7 9 0 0 0 2021 7 12 23 45 0 900 1 1 0 0 0 1 H9 10 0 59404 0.00000 0 -23380910.831 -9819928.271 -2669804.725 10 0 59404 900.00000 0 -23553473.247 -9756887.957 530880.991 10 0 59404 1800.00000 0 -23350865.069 -9547815.413 3721245.879 10 0 59404 2700.00000 0 -22760501.445 -9246037.326 6839254.713 10 0 59404 3600.00000 0 -21782846.465 -8907088.109 9824292.111 10 0 59404 4500.00000 0 -20431522.767 -8586143.744 12618345.547 10 0 59404 5400.00000 0 -18732884.723 -8335482.131 15167135.734 10 0 59404 6300.00000 0 -16725072.778 -8202078.198 17421172.078 10 0 59404 7200.00000 0 -14456588.689 -8225435.958 19336712.489 10 0 59404 8100.00000 0 -11984451.295 -8435749.448 20876609.172 10 0 59404 9000.00000 0 -9372009.814 -8852470.302 22011024.482 10 0 59404 9900.00000 0 -6686505.815 -9483342.374 22718003.523 10 0 59404 10800.00000 0 -3996485.017 -10323944.021 22983893.248 10 0 59404 11700.00000 0 -1369165.985 -11357757.341 22803600.689 10 0 59404 12600.00000 0 1132125.639 -12556761.541 22180685.987 10 0 59404 13500.00000 0 3450351.886 -13882525.758 21127288.948 10 0 59404 14400.00000 0 5536887.956 -15287755.899 19663890.837 10 0 59404 15300.00000 0 7353291.415 -16718231.068 17818916.081 10 0 59404 16200.00000 0 8872642.996 -18115048.999 15628181.445 10 0 59404 17100.00000 0 10080404.636 -19417086.893 13134202.998 10 0 59404 18000.00000 0 10974760.302 -20563574.952 10385373.937 10 0 59404 18900.00000 0 11566426.735 -21496675.032 7435028.725 10 0 59404 19800.00000 0 11877943.247 -22163956.421 4340411.274 10 0 59404 20700.00000 0 11942471.378 -22520664.770 1161566.956 10 0 59404 21600.00000 0 11802155.796 -22531688.750 -2039820.295 10 0 59404 22500.00000 0 11506116.168 -22173141.393 -5201623.296 10 0 59404 23400.00000 0 11108155.227 -21433489.188 -8262476.021 10 0 59404 24300.00000 0 10664280.194 -20314180.805 -11162963.680 10 0 59404 25200.00000 0 10230142.571 -18829748.262 -13846775.262 10 0 59404 26100.00000 0 9858504.667 -17007375.420 -16261796.047 10 0 59404 27000.00000 0 9596840.104 -14885950.978 -18361118.911 10 0 59404 27900.00000 0 9485169.838 -12514644.543 -20103954.901 10 0 59404 28800.00000 0 9554225.280 -9951064.372 -21456425.518 10 0 59404 29700.00000 0 9824016.352 -7259072.642 -22392221.549 10 0 59404 30600.00000 0 10302865.328 -4506348.276 -22893115.855 10 0 59404 31500.00000 0 10986947.765 -1761797.947 -22949320.241 10 0 59404 32400.00000 0 11860360.626 907077.964 -22559679.481 10 0 59404 33300.00000 0 12895715.642 3436755.795 -21731698.546 10 0 59404 34200.00000 0 14055233.866 5770089.166 -20481402.155 10 0 59404 35100.00000 0 15292296.358 7858440.568 -18833028.896 10 0 59404 36000.00000 0 16553386.619 9663455.870 -16818565.227 10 0 59404 36900.00000 0 17780343.691 11158408.325 -14477127.841 10 0 59404 37800.00000 0 18912831.517 12329056.622 -11854205.845 10 0 59404 38700.00000 0 19890920.690 13173981.825 -9000777.037 10 0 59404 39600.00000 0 20657673.623 13704389.818 -5972315.378 10 0 59404 40500.00000 0 21161623.705 13943388.495 -2827709.019 10 0 59404 41400.00000 0 21359043.241 13924771.176 371889.775 10 0 59404 42300.00000 0 21215903.716 13691358.612 3564259.719 10 0 59404 43200.00000 0 20709444.873 13292970.807 6687326.691 10 0 59404 44100.00000 0 19829285.660 12784115.524 9680376.567 10 0 59404 45000.00000 0 18578029.556 12221492.333 12485240.211 10 0 59404 45900.00000 0 16971338.266 11661418.741 15047427.059 10 0 59404 46800.00000 0 15037470.239 11157288.006 17317184.822 10 0 59404 47700.00000 0 12816303.146 10757166.625 19250464.560 10 0 59404 48600.00000 0 10357881.027 10501633.217 20809772.604 10 0 59404 49500.00000 0 7720546.572 10421950.047 21964893.243 10 0 59404 50400.00000 0 4968736.288 10538644.079 22693468.755 10 0 59404 51300.00000 0 2170529.933 10860557.063 22981426.368 10 0 59404 52200.00000 0 -604944.434 11384404.271 22823244.614 10 0 59404 53100.00000 0 -3290142.670 12094860.187 22222054.628 10 0 59404 54000.00000 0 -5821665.729 12965167.344 21189574.958 10 0 59404 54900.00000 0 -8142644.612 13958242.765 19745881.454 10 0 59404 55800.00000 0 -10204851.256 15028235.669 17919016.753 10 0 59404 56700.00000 0 -11970448.969 16122471.290 15744446.813 10 0 59404 57600.00000 0 -13413310.983 17183699.567 13264374.650 10 0 59404 58500.00000 0 -14519853.440 18152554.572 10526924.193 10 0 59404 59400.00000 0 -15289349.324 18970121.636 7585209.656 10 0 59404 60300.00000 0 -15733711.429 19580504.435 4496307.970 10 0 59404 61200.00000 0 -15876754.390 19933284.076 1320154.011 10 0 59404 62100.00000 0 -15752967.748 19985766.553 -1881620.175 10 0 59404 63000.00000 0 -15405852.344 19704923.635 -5046879.718 10 0 59404 63900.00000 0 -14885890.705 19068944.958 -8114191.507 10 0 59404 64800.00000 0 -14248237.434 18068335.312 -11024015.601 10 0 59404 65700.00000 0 -13550227.363 16706510.099 -13719860.213 10 0 59404 66600.00000 0 -12848806.800 14999862.973 -16149377.728 10 0 59404 67500.00000 0 -12197996.430 12977301.709 -18265380.492 10 0 59404 68400.00000 0 -11646492.927 10679270.549 -20026756.797 10 0 59404 69300.00000 0 -11235510.513 8156298.723 -21399269.353 10 0 59404 70200.00000 0 -10996953.471 5467134.547 -22356221.000 10 0 59404 71100.00000 0 -10951996.779 2676541.618 -22878974.919 10 0 59404 72000.00000 0 -11110134.833 -147152.154 -22957319.349 10 0 59404 72900.00000 0 -11468738.668 -2934651.811 -22589669.721 10 0 59404 73800.00000 0 -12013140.792 -5618331.933 -21783104.135 10 0 59404 74700.00000 0 -12717244.607 -8134803.647 -20553231.148 10 0 59404 75600.00000 0 -13544633.402 -10427306.137 -18923891.970 10 0 59404 76500.00000 0 -14450132.818 -12447823.741 -16926702.229 10 0 59404 77400.00000 0 -15381761.472 -14158840.943 -14600441.647 10 0 59404 78300.00000 0 -16282987.851 -15534662.578 -11990302.903 10 0 59404 79200.00000 0 -17095198.432 -16562244.663 -9147013.852 10 0 59404 80100.00000 0 -17760272.679 -17241501.588 -6125850.021 10 0 59404 81000.00000 0 -18223155.809 -17585077.567 -2985556.643 10 0 59404 81900.00000 0 -18434319.994 -17617592.802 212798.515 10 0 59404 82800.00000 0 -18352009.222 -17374397.049 3407018.552 10 0 59404 83700.00000 0 -17944172.081 -16899884.245 6534993.133 10 0 59404 84600.00000 0 -17189999.922 -16245440.460 9535912.071 10 0 59404 85500.00000 0 -16081004.680 -15467112.924 12351452.280 10 0 59405 0.00000 0 -14621590.208 -14623099.600 14926914.413 10 0 59405 900.00000 0 -12829092.003 -13771166.337 17212286.958 10 0 59405 1800.00000 0 -10733284.361 -12966100.578 19163216.215 10 0 59405 2700.00000 0 -8375373.312 -12257310.602 20741864.415 10 0 59405 3600.00000 0 -5806518.793 -11686670.037 21917639.188 10 0 59405 4500.00000 0 -3085946.343 -11286699.248 22667780.971 10 0 59405 5400.00000 0 -278726.917 -11079159.167 22977797.799 10 0 59405 6300.00000 0 2546683.589 -11074116.242 22841739.819 10 0 59405 7200.00000 0 5321043.449 -11269517.131 22262308.870 10 0 59405 8100.00000 0 7976955.895 -11651290.465 21250801.579 10 0 59405 9000.00000 0 10451423.453 -12193970.924 19826887.360 10 0 59405 9900.00000 0 12688220.772 -12861819.139 18018225.724 10 0 59405 10800.00000 0 14639988.671 -13610390.238 15859930.158 10 0 59405 11700.00000 0 16269963.505 -14388485.136 13393888.626 10 0 59405 12600.00000 0 17553271.001 -15140402.618 10667953.490 10 0 59405 13500.00000 0 18477731.742 -15808397.605 7735016.083 10 0 59405 14400.00000 0 19044145.720 -16335242.212 4651983.449 10 0 59405 15300.00000 0 19266044.955 -16666781.715 1478676.854 10 0 59405 16200.00000 0 19168925.397 -16754377.583 -1723326.788 10 0 59405 17100.00000 0 18788991.109 -16557134.289 -4891888.179 10 0 59405 18000.00000 0 18171464.058 -16043815.545 -7965510.313 10 0 59405 18900.00000 0 17368531.166 -15194368.524 -10884531.116 10 0 59405 19800.00000 0 16437015.359 -14000991.007 -13592280.812 10 0 59405 20700.00000 0 15435868.970 -12468695.526 -16036181.386 10 0 59405 21600.00000 0 14423595.200 -10615345.631 -18168766.853 10 0 59405 22500.00000 0 13455706.216 -8471161.403 -19948604.594 10 0 59405 23400.00000 0 12582324.898 -6077713.616 -21341100.005 10 0 59405 24300.00000 0 11846031.042 -3486447.153 -22319169.060 10 0 59405 25200.00000 0 11280042.523 -756793.876 -22863765.939 10 0 59405 26100.00000 0 10906807.835 2046047.679 -22964255.561 10 0 59405 27000.00000 0 10737069.175 4853574.645 -22618623.854 10 0 59405 27900.00000 0 10769435.538 7596582.915 -21833521.490 10 0 59405 28800.00000 0 10990483.938 10207803.641 -20624139.928 10 0 59405 29700.00000 0 11375384.715 12624464.308 -19013921.704 10 0 59405 30600.00000 0 11889024.858 14790668.490 -17034109.974 10 0 59405 31500.00000 0 12487582.265 16659495.582 -14723145.509 10 0 59405 32400.00000 0 13120484.667 18194733.379 -12125922.251 10 0 59405 33300.00000 0 13732670.548 19372171.511 -9292915.474 10 0 59405 34200.00000 0 14267056.354 20180401.956 -6279199.337 10 0 59405 35100.00000 0 14667105.270 20621093.587 -3143372.983 10 0 59405 36000.00000 0 14879388.303 20708729.831 53583.666 10 0 59405 36900.00000 0 14856028.541 20469821.214 3249501.507 10 0 59405 37800.00000 0 14556924.265 19941626.857 6382237.370 10 0 59405 38700.00000 0 13951655.920 19170439.811 9390888.237 10 0 59405 39600.00000 0 13020995.459 18209509.577 12216980.084 10 0 59405 40500.00000 0 11757953.438 17116690.429 14805607.598 10 0 59405 41400.00000 0 10168318.894 15951915.595 17106502.244 10 0 59405 42300.00000 0 8270668.671 14774604.415 19075007.653 10 0 59405 43200.00000 0 6095845.134 13641112.088 20672943.617 10 0 59405 44100.00000 0 3685923.541 12602329.377 21869342.333 10 0 59405 45000.00000 0 1092711.793 11701533.001 22641043.195 10 0 59405 45900.00000 0 -1624155.528 10972576.469 22973135.391 10 0 59405 46800.00000 0 -4399450.097 10438496.577 22859240.529 10 0 59405 47700.00000 0 -7164817.621 10110593.164 22301630.476 10 0 59405 48600.00000 0 -9851378.771 9988019.844 21311178.725 10 0 59405 49500.00000 0 -12392356.304 10057901.994 19907146.514 10 0 59405 50400.00000 0 -14725620.172 10295976.331 18116807.979 10 0 59405 51300.00000 0 -16796046.024 10667724.668 15974921.457 10 0 59405 52200.00000 0 -18557590.124 11129953.775 13523056.835 10 0 59405 53100.00000 0 -19974995.231 11632754.728 10808791.641 10 0 59405 54000.00000 0 -21025057.375 12121759.097 7884790.959 10 0 59405 54900.00000 0 -21697401.500 12540596.884 4807788.572 10 0 59405 55800.00000 0 -21994734.266 12833452.487 1637488.851 10 0 59405 56700.00000 0 -21932564.163 12947610.700 -1564589.558 10 0 59405 57600.00000 0 -21538401.225 12835885.031 -4736305.872 10 0 59405 58500.00000 0 -20850470.446 12458825.399 -7816101.915 10 0 59405 59400.00000 0 -19915993.356 11786611.456 -10744195.956 10 0 59405 60300.00000 0 -18789110.307 10800550.873 -13463742.437 10 0 59405 61200.00000 0 -17528531.031 9494118.488 -15921934.847 10 0 59405 62100.00000 0 -16195012.383 7873491.434 -18071030.410 10 0 59405 63000.00000 0 -14848769.256 5957556.416 -19869276.768 10 0 59405 63900.00000 0 -13546927.381 3777387.439 -21281722.778 10 0 59405 64800.00000 0 -12341124.812 1375214.311 -22280897.924 10 0 59405 65700.00000 0 -11275362.510 -1197076.531 -22847347.365 10 0 59405 66600.00000 0 -10384194.012 -3879847.774 -22970012.331 10 0 59405 67500.00000 0 -9691329.839 -6607945.575 -22646448.522 10 0 59405 68400.00000 0 -9208715.021 -9313170.805 -21882878.140 10 0 59405 69300.00000 0 -8936118.230 -11926885.364 -20694074.200 10 0 59405 70200.00000 0 -8861249.699 -14382646.029 -19103078.950 10 0 59405 71100.00000 0 -8960402.802 -16618756.935 -17140761.234 10 0 59405 72000.00000 0 -9199592.249 -18580634.710 -14845220.832 10 0 59405 72900.00000 0 -9536140.751 -20222887.993 -12261050.773 10 0 59405 73800.00000 0 -9920647.006 -21511024.704 -9438471.487 10 0 59405 74700.00000 0 -10299251.530 -22422715.756 -6432353.464 10 0 59405 75600.00000 0 -10616104.004 -22948562.516 -3301147.440 10 0 59405 76500.00000 0 -10815927.060 -23092336.106 -105743.171 10 0 59405 77400.00000 0 -10846567.170 -22870678.947 3091720.354 10 0 59405 78300.00000 0 -10661423.659 -22312281.717 6229069.463 10 0 59405 79200.00000 0 -10221652.030 -21456571.176 9245310.657 10 0 59405 80100.00000 0 -9498047.432 -20351964.968 12081821.307 10 0 59405 81000.00000 0 -8472527.653 -19053767.882 14683492.387 10 0 59405 81900.00000 0 -7139152.221 -17621798.957 16999800.617 10 0 59405 82800.00000 0 -5504633.847 -16117850.032 18985788.948 10 0 59405 83700.00000 0 -3588320.030 -14603083.079 20602936.510 10 0 59405 84600.00000 0 -1421644.855 -13135475.783 21819901.562 10 0 59405 85500.00000 0 952926.617 -11767422.461 22613123.597 10 0 59406 0.00000 0 3483417.939 -10543590.366 22967273.745 10 0 59406 900.00000 0 6110262.452 -9499120.632 22875545.477 10 0 59406 1800.00000 0 8768546.133 -8658247.496 22339780.747 10 0 59406 2700.00000 0 11390480.463 -8033393.901 21370429.590 10 0 59406 3600.00000 0 13908002.994 -7624778.498 19986344.424 10 0 59406 4500.00000 0 16255398.516 -7420550.705 18214413.034 10 0 59406 5400.00000 0 18371832.874 -7397446.570 16089037.290 10 0 59406 6300.00000 0 20203695.004 -7521937.263 13651467.353 10 0 59406 7200.00000 0 21706650.436 -7751821.310 10949003.912 10 0 59406 8100.00000 0 22847321.507 -8038193.102 8034083.439 10 0 59406 9000.00000 0 23604524.845 -8327704.413 4963263.751 10 0 59406 9900.00000 0 23970014.917 -8565023.343 1796129.323 10 0 59406 10800.00000 0 23948703.057 -8695386.628 -1405862.679 10 0 59406 11700.00000 0 23558343.194 -8667137.254 -4580573.322 10 0 59406 12600.00000 0 22828697.770 -8434139.789 -7666386.574 10 0 59406 13500.00000 0 21800219.115 -7957970.901 -10603404.263 10 0 59406 14400.00000 0 20522301.814 -7209791.875 -13334608.036 10 0 59406 15300.00000 0 19051179.574 -6171823.253 -15806965.603 10 0 59406 16200.00000 0 17447554.885 -4838358.450 -17972459.793 10 0 59406 17100.00000 0 15774060.863 -3216272.370 -19789020.571 10 0 59406 18000.00000 0 14092661.610 -1325002.351 -21221341.963 10 0 59406 18900.00000 0 12462099.791 803999.321 -22241568.329 10 0 59406 19800.00000 0 10935498.004 3128320.023 -22829836.802 10 0 59406 20700.00000 0 9558214.078 5596105.973 -22974665.535 10 0 59406 21600.00000 0 8366039.611 8147984.155 -22673180.231 10 0 59406 22500.00000 0 7383816.754 10719308.299 -21931174.442 10 0 59406 23400.00000 0 6624530.787 13242636.490 -20763002.175 10 0 59406 24300.00000 0 6088916.072 15650338.251 -19191304.412 10 0 59406 25200.00000 0 5765591.522 17877223.238 -17246574.311 10 0 59406 26100.00000 0 5631719.512 19863082.394 -14966568.892 10 0 59406 27000.00000 0 5654160.077 21555035.799 -12395578.110 10 0 59406 27900.00000 0 5791071.266 22909589.257 -9583565.016 10 0 59406 28800.00000 0 5993887.589 23894313.472 -6585193.542 10 0 59406 29700.00000 0 6209592.277 24489075.473 -3458762.828 10 0 59406 30600.00000 0 6383186.424 24686770.620 -265069.062 10 0 59406 31500.00000 0 6460249.620 24493524.572 2933782.428 10 0 59406 32400.00000 0 6389482.629 23928357.028 6075591.020 10 0 59406 33300.00000 0 6125123.368 23022321.888 9099276.206 10 0 59406 34200.00000 0 5629132.927 21817160.610 11946070.038 10 0 59406 35100.00000 0 4873058.124 20363526.199 14560662.800 10 0 59406 36000.00000 0 3839491.010 18718853.226 16892279.183 10 0 59406 36900.00000 0 2523062.944 16944964.095 18895663.812 10 0 59406 37800.00000 0 930930.609 15105512.551 20531957.122 10 0 59406 38700.00000 0 -917267.142 13263371.857 21769444.984 10 0 59406 39600.00000 0 -2989980.428 11478077.045 22584168.112 10 0 59406 40500.00000 0 -5244824.239 9803427.851 22960380.207 10 0 59406 41400.00000 0 -7630114.889 8285351.817 22890846.748 10 0 59406 42300.00000 0 -10086803.597 6960115.936 22376979.337 10 0 59406 43200.00000 0 -12550727.527 5852960.292 21428803.598 10 0 59406 44100.00000 0 -14955085.444 4977209.481 20064761.574 10 0 59406 45000.00000 0 -17233035.783 4333897.652 18311352.587 10 0 59406 45900.00000 0 -19320309.959 3911921.541 16202619.429 10 0 59406 46800.00000 0 -21157732.916 3688713.921 13779489.490 10 0 59406 47700.00000 0 -22693546.614 3631408.243 11088983.246 10 0 59406 48600.00000 0 -23885440.203 3698444.708 8183304.983 10 0 59406 49500.00000 0 -24702202.642 3841549.540 5118832.898 10 0 59406 50400.00000 0 -25124929.015 4008003.571 1955027.936 10 0 59406 51300.00000 0 -25147730.385 4143104.012 -1246717.729 10 0 59406 52200.00000 0 -24777917.586 4192715.067 -4424270.352 10 0 59406 53100.00000 0 -24035651.383 4105799.254 -7515959.156 10 0 59406 54000.00000 0 -22953073.689 3836821.962 -10461772.372 10 0 59406 54900.00000 0 -21572956.291 3347927.088 -13204521.414 10 0 59406 55800.00000 0 -19946923.695 2610791.167 -15690950.420 10 0 59406 56700.00000 0 -18133324.514 1608076.865 -17872769.652 10 0 59406 57600.00000 0 -16194840.390 334423.541 -19707592.767 10 0 59406 58500.00000 0 -14195932.362 -1203068.051 -21159759.850 10 0 59406 59400.00000 0 -12200231.204 -2984878.638 -22201030.492 10 0 59406 60300.00000 0 -10267980.419 -4979640.666 -22811133.655 10 0 59406 61200.00000 0 -8453638.333 -7145213.523 -22978163.771 10 0 59406 62100.00000 0 -6803738.929 -9430220.389 -22698815.460 10 0 59406 63000.00000 0 -5355100.203 -11775984.042 -21978452.159 10 0 59406 63900.00000 0 -4133454.426 -14118782.087 -20831007.066 10 0 59406 64800.00000 0 -3152556.937 -16392328.682 -19278717.855 10 0 59406 65700.00000 0 -2413810.219 -18530380.071 -17351699.745 10 0 59406 66600.00000 0 -1906418.413 -20469355.654 -15087364.623 10 0 59406 67500.00000 0 -1608065.143 -22150865.428 -12529696.922 10 0 59406 68400.00000 0 -1486085.435 -23524038.150 -9728399.840 10 0 59406 69300.00000 0 -1499081.643 -24547552.543 -6737928.309 10 0 59406 70200.00000 0 -1598914.310 -25191286.203 -3616427.498 10 0 59406 71100.00000 0 -1732982.924 -25437512.727 -424597.709 10 0 59406 72000.00000 0 -1846699.070 -25281596.588 2775491.624 10 0 59406 72900.00000 0 -1886046.201 -24732156.504 5921615.098 10 0 59406 73800.00000 0 -1800116.523 -23810690.563 8952607.311 10 0 59406 74700.00000 0 -1543516.518 -22550679.185 11809557.041 10 0 59406 75600.00000 0 -1078538.271 -20996204.134 14436955.843 10 0 59406 76500.00000 0 -377003.884 -19200142.129 16783778.225 10 0 59406 77400.00000 0 578295.706 -17222009.471 18804472.161 10 0 59406 78300.00000 0 1792628.868 -15125548.540 20459840.851 10 0 59406 79200.00000 0 3258859.930 -12976157.462 21717798.982 10 0 59406 80100.00000 0 4957514.363 -10838270.501 22553989.394 10 0 59406 81000.00000 0 6857370.328 -8772798.321 22952248.963 10 0 59406 81900.00000 0 8916552.518 -6834734.257 22904915.458 10 0 59406 82800.00000 0 11084083.147 -5071025.592 22412970.133 10 0 59406 83700.00000 0 13301826.153 -3518797.361 21486013.896 10 0 59406 84600.00000 0 15506744.324 -2204001.369 20142077.843 10 0 59406 85500.00000 0 17633376.027 -1140545.395 18407272.015 10 0 59407 0.00000 0 19616429.142 -329937.414 16315279.086 10 0 59407 900.00000 0 21393384.762 238541.578 13906702.207 10 0 59407 1800.00000 0 22907002.975 587144.980 11228280.045 10 0 59407 2700.00000 0 24107625.833 748477.705 8331982.726 10 0 59407 3600.00000 0 24955182.834 763874.491 5274006.548 10 0 59407 4500.00000 0 25420814.231 681407.743 2113686.359 10 0 59407 5400.00000 0 25488044.836 553609.799 -1087653.480 10 0 59407 6300.00000 0 25153458.945 435006.176 -4267887.388 10 0 59407 7200.00000 0 24426848.002 379564.421 -7365292.905 10 0 59407 8100.00000 0 23330824.629 438166.834 -10319747.687 10 0 59407 9000.00000 0 21899918.929 656214.371 -13073895.801 10 0 59407 9900.00000 0 20179194.723 1071463.497 -15574260.501 10 0 59407 10800.00000 0 18222443.326 1712188.035 -17772281.918 10 0 59407 11700.00000 0 16090030.145 2595744.406 -19625259.573 10 0 59407 12600.00000 0 13846483.766 3727601.665 -21097181.511 10 0 59407 13500.00000 0 11557927.839 5100878.337 -22159424.199 10 0 59407 14400.00000 0 9289462.456 6696406.853 -22791309.786 10 0 59407 15300.00000 0 7102603.763 8483324.253 -22980510.054 10 0 59407 16200.00000 0 5052887.989 10420165.919 -22723289.275 10 0 59407 17100.00000 0 3187739.138 12456418.044 -22024581.141 10 0 59407 18000.00000 0 1544688.670 14534465.214 -20897898.007 10 0 59407 18900.00000 0 150020.802 16591852.910 -19365073.770 10 0 59407 19800.00000 0 -982100.721 18563771.295 -17455844.795 10 0 59407 20700.00000 0 -1849988.487 20385657.037 -15207276.464 10 0 59407 21600.00000 0 -2464255.800 21995804.674 -12663045.868 10 0 59407 22500.00000 0 -2847117.777 23337878.239 -9872594.115 10 0 59407 23400.00000 0 -3031199.374 24363217.592 -6890164.507 10 0 59407 24300.00000 0 -3057901.553 25032842.387 -3773745.262 10 0 59407 25200.00000 0 -2975395.594 25319069.007 -583937.561 10 0 59407 26100.00000 0 -2836331.372 25206672.041 2617228.489 10 0 59407 27000.00000 0 -2695357.739 24693541.122 5767506.232 10 0 59407 27900.00000 0 -2606561.116 23790805.256 8805648.886 10 0 59407 28800.00000 0 -2620931.849 22522419.412 11672605.396 10 0 59407 29700.00000 0 -2783966.597 20924230.888 14312671.849 10 0 59407 30600.00000 0 -3133509.086 19042564.945 16674575.599 10 0 59407 31500.00000 0 -3697921.233 16932389.445 18712470.718 10 0 59407 32400.00000 0 -4494662.424 14655135.686 20386825.585 10 0 59407 33300.00000 0 -5529337.371 12276266.835 21665185.762 10 0 59407 34200.00000 0 -6795252.985 9862695.589 22522797.859 10 0 59407 35100.00000 0 -8273503.326 7480158.570 22943083.128 10 0 59407 36000.00000 0 -9933579.496 5190656.296 22917952.326 10 0 59407 36900.00000 0 -11734479.420 3050064.562 22447956.521 10 0 59407 37800.00000 0 -13626271.664 1106015.539 21542271.478 10 0 59407 38700.00000 0 -15552048.640 -603864.589 20218516.341 10 0 59407 39600.00000 0 -17450188.246 -2053289.427 18502410.239 10 0 59407 40500.00000 0 -19256830.250 -3228163.606 16427273.437 10 0 59407 41400.00000 0 -20908464.680 -4126917.452 14033382.342 10 0 59407 42300.00000 0 -22344524.610 -4760312.475 11367190.566 10 0 59407 43200.00000 0 -23509875.427 -5150727.175 8480430.615 10 0 59407 44100.00000 0 -24357096.744 -5330954.225 5429113.202 10 0 59407 45000.00000 0 -24848461.475 -5342560.555 2272443.283 10 0 59407 45900.00000 0 -24957529.163 -5233880.128 -928326.399 10 0 59407 46800.00000 0 -24670286.523 -5057724.722 -4111082.148 10 0 59407 47700.00000 0 -23985787.058 -4868909.811 -7214053.407 10 0 59407 48600.00000 0 -22916262.513 -4721700.534 -10177010.638 10 0 59407 49500.00000 0 -21486701.001 -4667286.112 -12942433.687 10 0 59407 50400.00000 0 -19733908.970 -4751389.834 -15456627.737 10 0 59407 51300.00000 0 -17705095.764 -5012116.099 -17670765.194 10 0 59407 52200.00000 0 -15456039.382 -5478125.968 -19541833.389 10 0 59407 53100.00000 0 -13048909.584 -6167218.872 -21033469.711 10 0 59407 54000.00000 0 -10549838.554 -7085381.094 -22116668.275 10 0 59407 54900.00000 0 -8026339.797 -8226342.086 -22770344.569 10 0 59407 55800.00000 0 -5544682.217 -9571658.395 -22981747.254 10 0 59407 56700.00000 0 -3167328.006 -11091322.952 -22746709.208 10 0 59407 57600.00000 0 -950540.316 -12744875.501 -22069732.849 10 0 59407 58500.00000 0 1057740.322 -14482968.857 -20963907.739 10 0 59407 59400.00000 0 2819663.076 -16249326.584 -19450661.733 10 0 59407 60300.00000 0 4308804.454 -17983011.063 -17559349.837 10 0 59407 61200.00000 0 5511021.289 -19620907.600 -15326688.248 10 0 59407 62100.00000 0 6424784.222 -21100320.897 -12796043.929 10 0 59407 63000.00000 0 7060978.526 -22361575.055 -10016593.047 10 0 59407 63900.00000 0 7442181.500 -23350507.757 -7042364.417 10 0 59407 64800.00000 0 7601447.833 -24020753.413 -3931186.483 10 0 59407 65700.00000 0 7580655.224 -24335718.695 -743558.544 10 0 59407 66600.00000 0 7428481.192 -24270166.658 2458531.261 10 0 59407 67500.00000 0 7198097.809 -23811342.166 5612817.546 10 0 59407 68400.00000 0 6944683.064 -22959590.730 8657974.495 10 0 59407 69300.00000 0 6722855.306 -21728444.359 11534813.374 10 0 59407 70200.00000 0 6584140.406 -20144170.626 14187436.740 10 0 59407 71100.00000 0 6574579.658 -18244803.866 16564326.468 10 0 59407 72000.00000 0 6732580.289 -16078699.249 18619344.130 10 0 59407 72900.00000 0 7087099.835 -13702670.456 20312624.391 10 0 59407 73800.00000 0 7656241.379 -11179788.860 21611344.456 10 0 59407 74700.00000 0 8446319.011 -8576936.160 22490355.169 10 0 59407 75600.00000 0 9451433.016 -5962212.224 22932662.296 10 0 59407 76500.00000 0 10653572.842 -3402305.552 22929749.440 10 0 59407 77400.00000 0 12023243.691 -959935.072 22481737.070 10 0 59407 78300.00000 0 13520590.840 1308531.424 21597375.185 10 0 59407 79200.00000 0 15096975.035 3355184.466 20293870.141 10 0 59407 80100.00000 0 16696933.495 5142319.403 18596549.162 10 0 59407 81000.00000 0 18260445.071 6643751.071 16538368.983 10 0 59407 81900.00000 0 19725405.319 7845643.392 14159277.833 10 0 59407 82800.00000 0 21030208.382 8746820.689 11505442.783 10 0 59407 83700.00000 0 22116327.972 9358549.137 8628356.981 10 0 59407 84600.00000 0 22930789.544 9703798.746 5583843.586 10 0 59407 85500.00000 0 23428430.049 9816017.893 2430975.476 99